Weather History for Lemoore (Abandoned) Willett A, CO

Change the Weather History Date:

Saturday, March 22, 2014

  Actual Average (KBJC) Record (KBJC)
Temperature  
Mean Temperature 32 °F -  
Max Temperature 39 °F 53 °F 116 °F (2001)
Min Temperature 25 °F 32 °F 8 °F (1985)
Degree Days  
Heating Degree Days 33    
Moisture  
Dew Point 25 °F    
Average Humidity 80    
Maximum Humidity 93    
Minimum Humidity 46    
Precipitation  
Precipitation 0.00 in - - ()
Sea Level Pressure  
Sea Level Pressure 30.18 in    
Wind  
Wind Speed 10 mph (NNE)    
Max Wind Speed 15 mph    
Max Gust Speed 17 mph    
Visibility 7 miles    
Events Snow    
Averages and records for this station are not official NWS values.
T = Trace of Precipitation, MM = Missing Value Source: NWS Daily Summary

Daily Weather History Graph

Daily Weather History Graph

Search for Another Location

Airport:

Trip Planner

Search our weather history database for the weather conditions in past years. The results will help you decide how hot, cold, wet, or windy it might be!

Date:

Astronomy

Mar. 22, 2014 Rise Set
Actual Time 7:00 AM MDT 7:14 PM MDT
Civil Twilight 6:33 AM MDT 7:41 PM MDT
Nautical Twilight 6:01 AM MDT 8:13 PM MDT
Astronomical Twilight 5:29 AM MDT 8:46 PM MDT
Moon 12:36 AM MDT (3/22) 10:46 AM MDT (3/22)
Length of Visible Light 13h 08m
Length of Day
12h 14m
Waning Gibbous, 65% of the Moon is Illuminated
Mar 22
Waning Gibbous
Mar 23
Last Quarter
Mar 30
New
Apr 7
First Quarter
Apr 15
Full

Hourly Weather History & Observations

Time (MDT) Temp. Windchill Dew Point Humidity Pressure Visibility Wind Dir Wind Speed Gust Speed Precip Events Conditions
12:15 AM 39.4 °F 36.1 °F 20.1 °F 46% 30.13 in 10.0 mi ENE 4.6 mph - N/A   Overcast
12:35 AM 38.8 °F 32.1 °F 20.1 °F 47% 30.13 in 10.0 mi NNE 10.4 mph - N/A   Overcast
12:55 AM 37.4 °F 29.8 °F 20.1 °F 50% 30.12 in 10.0 mi North 11.5 mph - N/A   Overcast
1:15 AM 36.1 °F 27.7 °F 20.1 °F 52% 30.12 in 10.0 mi NNE 12.7 mph 17.3 mph N/A   Overcast
1:35 AM 34.7 °F 26.9 °F 20.3 °F 56% 30.12 in 10.0 mi NNE 10.4 mph - N/A   Overcast
1:55 AM 34.2 °F 26.8 °F 21.0 °F 59% 30.12 in 10.0 mi NNE 9.2 mph - N/A   Mostly Cloudy
2:15 AM 33.8 °F 25.8 °F 23.0 °F 65% 30.12 in 10.0 mi North 10.4 mph - N/A   Mostly Cloudy
2:35 AM 33.3 °F 24.1 °F 24.3 °F 70% 30.11 in 10.0 mi NNE 12.7 mph - N/A   Overcast
2:53 AM 33.1 °F 25.5 °F 24.4 °F 71% 30.10 in 10.0 mi North 9.2 mph - N/A   Overcast
3:15 AM 32.4 °F 23.5 °F 24.8 °F 74% 30.09 in 10.0 mi North 11.5 mph 16.1 mph N/A   Overcast
3:35 AM 32.2 °F 22.7 °F 25.2 °F 75% 30.08 in 10.0 mi North 12.7 mph - N/A   Overcast
3:54 AM 32.0 °F 22.5 °F 25.2 °F 76% 30.08 in 10.0 mi North 12.7 mph - N/A   Overcast
4:15 AM 32.0 °F 22.5 °F 25.0 °F 75% 30.08 in 10.0 mi North 12.7 mph 17.3 mph N/A   Overcast
4:34 AM 32.0 °F 23.0 °F 24.8 °F 75% 30.08 in 10.0 mi North 11.5 mph 17.3 mph N/A   Overcast
4:55 AM 32.0 °F 24.2 °F 24.4 °F 74% 30.08 in 10.0 mi North 9.2 mph - N/A   Overcast
5:15 AM 32.0 °F 22.5 °F 24.3 °F 73% 30.07 in 10.0 mi North 12.7 mph - N/A   Overcast
5:35 AM 31.6 °F 22.1 °F 23.4 °F 71% 30.08 in 10.0 mi NNE 12.7 mph - N/A   Overcast
5:55 AM 31.1 °F 22.4 °F 23.4 °F 73% 30.08 in 10.0 mi NNE 10.4 mph - N/A   Overcast
6:15 AM 30.6 °F 22.4 °F 23.0 °F 74% 30.09 in 10.0 mi NNE 9.2 mph - N/A   Overcast
6:35 AM 30.0 °F 21.1 °F 23.5 °F 77% 30.09 in 10.0 mi North 10.4 mph - N/A   Overcast
6:55 AM 29.7 °F 20.7 °F 23.5 °F 78% 30.09 in 10.0 mi NNE 10.4 mph 16.1 mph N/A   Overcast
7:15 AM 29.3 °F 20.8 °F 23.7 °F 80% 30.10 in 10.0 mi North 9.2 mph - N/A   Overcast
7:35 AM 29.5 °F 20.4 °F 23.7 °F 79% 30.10 in 10.0 mi NNE 10.4 mph - N/A   Overcast
7:54 AM 29.5 °F 20.4 °F 23.7 °F 79% 30.11 in 10.0 mi North 10.4 mph - N/A   Overcast
8:15 AM 30.2 °F 20.8 °F 23.9 °F 77% 30.10 in 10.0 mi North 11.5 mph - N/A   Overcast
8:35 AM 30.6 °F 21.8 °F 24.1 °F 77% 30.10 in 10.0 mi North 10.4 mph - N/A   Overcast
8:55 AM 31.1 °F 23.7 °F 24.4 °F 76% 30.10 in 10.0 mi NNE 8.1 mph - N/A   Overcast
9:15 AM 31.6 °F 22.6 °F 24.4 °F 75% 30.10 in 10.0 mi NNE 11.5 mph - N/A   Overcast
9:34 AM 32.0 °F 22.5 °F 25.9 °F 78% 30.10 in 10.0 mi NNE 12.7 mph - N/A   Overcast
9:54 AM 32.5 °F 23.7 °F 25.7 °F 76% 30.11 in 10.0 mi NNE 11.5 mph - N/A   Overcast
10:14 AM 32.0 °F 23.0 °F 26.2 °F 79% 30.11 in 4.0 mi North 11.5 mph - N/A   Haze
10:34 AM 32.2 °F 23.8 °F 27.0 °F 81% 30.11 in 5.0 mi North 10.4 mph - N/A   Haze
10:54 AM 32.5 °F 23.2 °F 27.3 °F 81% 30.11 in 4.0 mi North 12.7 mph 17.3 mph N/A Snow Light Snow
11:15 AM 32.0 °F 21.6 °F 27.3 °F 83% 30.12 in 2.0 mi North 15.0 mph - N/A Snow Light Snow
11:35 AM 32.0 °F 22.5 °F 28.2 °F 86% 30.12 in 0.8 mi North 12.7 mph 17.3 mph N/A Snow Light Snow
11:55 AM 32.0 °F 22.5 °F 28.4 °F 87% 30.13 in 1.0 mi North 12.7 mph - N/A Snow Light Snow
12:14 PM 32.2 °F 22.7 °F 28.6 °F 87% 30.14 in 1.2 mi North 12.7 mph - N/A Snow Light Snow
12:35 PM 32.4 °F 23.0 °F 28.4 °F 85% 30.14 in 1.5 mi North 12.7 mph - N/A Snow Light Snow
12:55 PM 32.9 °F 23.2 °F 28.9 °F 85% 30.15 in 2.5 mi North 13.8 mph - N/A Snow Light Snow
1:15 PM 32.4 °F 23.5 °F 28.9 °F 87% 30.15 in 1.5 mi North 11.5 mph - N/A Snow Light Snow
1:34 PM 32.2 °F 22.3 °F 28.6 °F 87% 30.16 in 1.2 mi North 13.8 mph - N/A Snow Light Snow
1:55 PM 32.9 °F 23.2 °F 28.9 °F 85% 30.16 in 1.8 mi North 13.8 mph - N/A Snow Light Snow
2:15 PM 33.4 °F 23.5 °F 29.5 °F 85% 30.17 in 3.0 mi NNE 15.0 mph - N/A Snow Light Snow
2:35 PM 32.7 °F 23.9 °F 28.4 °F 84% 30.17 in 4.0 mi NE 11.5 mph - N/A Snow Light Snow
2:55 PM 32.4 °F 24.0 °F 28.6 °F 86% 30.18 in 2.0 mi NNE 10.4 mph - N/A Snow Light Snow
3:14 PM 32.4 °F 23.5 °F 28.2 °F 85% 30.19 in 2.0 mi NNE 11.5 mph - N/A Snow Light Snow
3:35 PM 33.4 °F 25.4 °F 28.8 °F 83% 30.19 in 2.0 mi NNE 10.4 mph - N/A Snow Light Snow
3:54 PM 32.5 °F 23.7 °F 28.6 °F 85% 30.21 in 2.5 mi NNE 11.5 mph - N/A Snow Light Snow
4:15 PM 32.2 °F 23.2 °F 27.3 °F 82% 30.22 in 7.0 mi NNE 11.5 mph - N/A Snow Light Snow
4:34 PM 32.0 °F 23.6 °F 26.8 °F 81% 30.23 in 10.0 mi NNE 10.4 mph - N/A   Overcast
4:55 PM 31.1 °F 21.9 °F 27.0 °F 85% 30.24 in 10.0 mi NNE 11.5 mph - N/A   Overcast
5:15 PM 30.7 °F 22.6 °F 26.8 °F 85% 30.25 in 5.0 mi NNE 9.2 mph - N/A Snow Light Snow
5:35 PM 30.4 °F 22.2 °F 26.2 °F 85% 30.26 in 10.0 mi NE 9.2 mph - N/A Snow Light Snow
5:55 PM 30.2 °F 21.3 °F 26.1 °F 85% 30.27 in 5.0 mi NNE 10.4 mph - N/A Snow Light Snow
6:15 PM 30.2 °F 22.6 °F 26.2 °F 85% 30.27 in 3.0 mi NNE 8.1 mph - N/A Snow Light Snow
6:35 PM 30.0 °F 23.2 °F 25.9 °F 85% 30.28 in 5.0 mi North 6.9 mph - N/A Snow Light Snow
6:55 PM 29.8 °F 23.0 °F 26.1 °F 86% 30.30 in 3.0 mi NNE 6.9 mph - N/A Snow Light Snow
7:15 PM 29.3 °F 20.2 °F 25.9 °F 87% 30.31 in 2.0 mi NE 10.4 mph - N/A Snow Light Snow
7:35 PM 28.4 °F 20.4 °F 25.5 °F 89% 30.32 in 5.0 mi NE 8.1 mph - N/A Snow Light Snow
7:55 PM 28.0 °F 20.8 °F 25.0 °F 88% 30.32 in 10.0 mi NE 6.9 mph - N/A Snow Light Snow
8:14 PM 27.9 °F 20.6 °F 24.8 °F 88% 30.33 in 10.0 mi ENE 6.9 mph - N/A Snow Light Snow
8:35 PM 27.5 °F 21.1 °F 24.8 °F 90% 30.34 in 4.0 mi NE 5.8 mph - N/A Snow Light Snow
8:55 PM 27.5 °F 20.2 °F 24.4 °F 88% 30.35 in 10.0 mi ENE 6.9 mph - N/A Snow Light Snow
9:15 PM 27.3 °F 20.9 °F 24.4 °F 89% 30.35 in 10.0 mi NE 5.8 mph - N/A   Overcast
9:35 PM 27.1 °F 18.9 °F 24.3 °F 89% 30.35 in 10.0 mi NE 8.1 mph - N/A   Overcast
9:55 PM 27.0 °F 19.5 °F 24.4 °F 90% 30.36 in 7.0 mi East 6.9 mph - N/A   Overcast
10:15 PM 26.4 °F 18.9 °F 23.9 °F 90% 30.36 in 4.0 mi East 6.9 mph - N/A Snow Light Snow
10:35 PM 26.1 °F 19.4 °F 23.9 °F 92% 30.36 in 4.0 mi East 5.8 mph - N/A   Overcast
10:55 PM 26.1 °F 19.4 °F 24.3 °F 93% 30.36 in 3.0 mi East 5.8 mph - N/A   Overcast
11:15 PM 26.1 °F 19.4 °F 24.1 °F 92% 30.35 in 3.0 mi East 5.8 mph - N/A   Overcast
11:35 PM 25.7 °F 20.1 °F 23.9 °F 93% 30.35 in 5.0 mi ESE 4.6 mph - N/A   Overcast
11:55 PM 25.7 °F 21.5 °F 23.9 °F 93% 30.34 in 5.0 mi SE 3.5 mph - N/A   Overcast